Tracking 31027 objects as of 19-Jul-2025
HD Live streaming from Space Station
objects crossing your sky now

USA 158

Track USA 158 now!
USA 158 is classified as:


NORAD ID: 26770
Int'l Code: 2001-020A
Perigee: 36,132.9 km
Apogee: 36,270.8 km
Inclination: 7.9 °
Period: 1,457.0 minutes
Semi major axis: 42572 km
RCS: Unknown
Launch date: May 18, 2001
Source: United States (US)
Launch site: AIR FORCE EASTERN TEST RANGE (AFETR)

Advanced technology demonstration satellite with laser communications experiment and operational UHF communications mission.
Your satellite tracking list
EKRAN 2 DEB
Track 1 satellite(s)




NASA's NSSDC Master Catalog

Two Line Element Set (TLE):
1 26770U 01020A   20185.07413062 0.00000000  00000-0  00000-0 0    07
2 26770   7.9176  43.1250 0016202  49.2544 310.8983  0.98833351    00
Source of the keplerian elements: McCants